This is the latest recevied weather packets stored in our database for station/object W0WC. If no packets are shown the sender has not sent any weather packets the latest 10 day(s).
| Time | Temp. | Humidity | Pressure | Rain* | Wind** | Luminosity | Snow |
|---|---|---|---|---|---|---|---|
| 1777911877 | 24.44° C | 48% | 1007.2 hPa | 0 mm | - | 694 W/m² | - |
| 1777911574 | 23.89° C | 49% | 1007.2 hPa | 0 mm | - | 684 W/m² | - |
| 1777911269 | 23.89° C | 48% | 1007.3 hPa | 0 mm | - | 675 W/m² | - |
| 1777910967 | 23.89° C | 49% | 1007.6 hPa | 0 mm | - | 668 W/m² | - |
| 1777910665 | 23.89° C | 48% | 1007.2 hPa | 0 mm | - | 657 W/m² | - |
| 1777910361 | 23.33° C | 51% | 1007.3 hPa | 0 mm | - | 648 W/m² | - |
| 1777910058 | 23.33° C | 50% | 1007.5 hPa | 0 mm | - | 635 W/m² | - |
| 1777909755 | 23.33° C | 49% | 1007.5 hPa | 0 mm | - | 623 W/m² | - |
| 1777909451 | 23.33° C | 49% | 1007.5 hPa | 0 mm | - | 613 W/m² | - |
| 1777909150 | 23.33° C | 50% | 1007.5 hPa | 0 mm | - | 599 W/m² | - |
| 1777908848 | 22.78° C | 50% | 1007.6 hPa | 0 mm | - | 586 W/m² | - |
| 1777908544 | 22.78° C | 51% | 1007.2 hPa | 0 mm | - | 575 W/m² | - |
| 1777908241 | 22.78° C | 50% | 1007.5 hPa | 0 mm | - | 562 W/m² | - |
| 1777907937 | 22.78° C | 51% | 1007.3 hPa | 0 mm | - | 549 W/m² | - |
| 1777907633 | 22.22° C | 50% | 1007.5 hPa | 0 mm | - | 533 W/m² | - |
| 1777907329 | 22.22° C | 50% | 1007.3 hPa | 0 mm | - | 521 W/m² | - |
| 1777907025 | 22.22° C | 51% | 1007.7 hPa | 0 mm | - | 507 W/m² | - |
| 1777906723 | 21.67° C | 51% | 1007.6 hPa | 0 mm | - | 494 W/m² | - |
| 1777906419 | 21.67° C | 51% | 1007.6 hPa | 0 mm | - | 480 W/m² | - |
| 1777906116 | 21.67° C | 51% | 1007.9 hPa | 0 mm | - | 465 W/m² | - |
| 1777905812 | 21.67° C | 51% | 1007.7 hPa | 0 mm | - | 449 W/m² | - |
| 1777905510 | 21.11° C | 52% | 1007.7 hPa | 0 mm | - | 432 W/m² | - |
| 1777905206 | 21.11° C | 51% | 1008 hPa | 0 mm | - | 417 W/m² | - |
| 1777904904 | 21.11° C | 52% | 1007.9 hPa | 0 mm | - | 402 W/m² | - |
| 1777904601 | 21.11° C | 52% | 1008.1 hPa | 0 mm | - | 387 W/m² | - |
* Rain latest hour (hover to see other rain measurements)
** Current wind speed in m/s (hover to see current wind gust speed)